| time (UTC) | temp C | wind direction | speed KPH | gust KPH | rain 1hr cm | rain 24hr cm | rain mn cm | humidity % | barometer mb |
| 20260502221506 | 12 | 196 | 4.8 | 6.4 | 0.00 | 0.00 | 0.00 | 64 | 1017.3 |
| 20260502221124 | 11 | 185 | 1.6 | 6.4 | 0.00 | 0.00 | 0.00 | 65 | 1019.1 |
| 20260502221006 | 11 | 181 | 3.2 | 6.4 | 0.00 | 0.00 | 0.00 | 65 | 1017.3 |
| 20260502220625 | 11 | 181 | 0.0 | 1.6 | 0.00 | 0.00 | 0.00 | 65 | 1019.0 |
| 20260502220506 | 11 | 181 | 1.6 | 3.2 | 0.00 | 0.00 | 0.00 | 66 | 1017.3 |
| 20260502220132 | 11 | 181 | 0.0 | 1.6 | 0.00 | 0.00 | 0.00 | 65 | 1019.0 |
| 20260502220007 | 11 | 181 | 1.6 | 3.2 | 0.00 | 0.00 | 0.00 | 66 | 1017.3 |
| 20260502215624 | 11 | 181 | 0.0 | 1.6 | 0.00 | 0.00 | 0.00 | 65 | 1019.0 |
| 20260502215506 | 11 | 181 | 1.6 | 3.2 | 0.00 | 0.00 | 0.00 | 65 | 1017.3 |
| 20260502215125 | 11 | 174 | 1.6 | 3.2 | 0.00 | 0.00 | 0.00 | 65 | 1019.1 |
| 20260502215005 | 11 | 171 | 1.6 | 3.2 | 0.00 | 0.00 | 0.00 | 65 | 1017.3 |
| 20260502214625 | 11 | 172 | 1.6 | 3.2 | 0.00 | 0.00 | 0.00 | 65 | 1019.1 |
| 20260502214506 | 11 | 169 | 3.2 | 3.2 | 0.00 | 0.00 | 0.00 | 65 | 1017.4 |
| 20260502214125 | 11 | 173 | 1.6 | 3.2 | 0.00 | 0.00 | 0.00 | 65 | 1019.2 |
| 20260502213625 | 11 | 171 | 1.6 | 3.2 | 0.00 | 0.00 | 0.00 | 65 | 1019.1 |
| 20260502213505 | 11 | 169 | 3.2 | 3.2 | 0.00 | 0.00 | 0.00 | 65 | 1017.4 |
| 20260502213125 | 11 | 167 | 1.6 | 3.2 | 0.00 | 0.00 | 0.00 | 65 | 1019.1 |
| 20260502213006 | 11 | 175 | 1.6 | 3.2 | 0.00 | 0.00 | 0.00 | 64 | 1017.4 |
| 20260502212125 | 11 | 221 | 1.6 | 3.2 | 0.00 | 0.00 | 0.00 | 64 | 1019.2 |
| 20260502212006 | 11 | 230 | 3.2 | 3.2 | 0.00 | 0.00 | 0.00 | 63 | 1017.6 |
| 20260502211506 | 12 | 229 | 3.2 | 4.8 | 0.00 | 0.00 | 0.00 | 62 | 1017.6 |
| 20260502211125 | 11 | 187 | 3.2 | 6.4 | 0.00 | 0.00 | 0.00 | 64 | 1019.2 |
| 20260502211005 | 12 | 192 | 3.2 | 6.4 | 0.00 | 0.00 | 0.00 | 62 | 1017.5 |
| 20260502210625 | 11 | 185 | 4.8 | 6.4 | 0.00 | 0.00 | 0.00 | 64 | 1019.3 |
| 20260502210506 | 12 | 178 | 4.8 | 6.4 | 0.00 | 0.00 | 0.00 | 62 | 1017.5 |
| 20260502210131 | 11 | 183 | 4.8 | 6.4 | 0.00 | 0.00 | 0.00 | 64 | 1019.3 |
| 20260502210006 | 12 | 181 | 4.8 | 4.8 | 0.00 | 0.00 | 0.00 | 62 | 1017.4 |
| 20260502205625 | 11 | 178 | 3.2 | 6.4 | 0.00 | 0.00 | 0.00 | 64 | 1019.2 |
| 20260502205506 | 12 | 183 | 3.2 | 4.8 | 0.00 | 0.00 | 0.00 | 61 | 1017.6 |
| 20260502205124 | 11 | 177 | 3.2 | 3.2 | 0.00 | 0.00 | 0.00 | 63 | 1019.3 |
| 20260502205006 | 12 | 183 | 3.2 | 4.8 | 0.00 | 0.00 | 0.00 | 61 | 1017.6 |
| 20260502204624 | 11 | 176 | 3.2 | 3.2 | 0.00 | 0.00 | 0.00 | 63 | 1019.3 |
| 20260502204505 | 12 | 177 | 1.6 | 3.2 | 0.00 | 0.00 | 0.00 | 61 | 1017.7 |
| 20260502204125 | 12 | 176 | 1.6 | 3.2 | 0.00 | 0.00 | 0.00 | 61 | 1019.4 |
| 20260502204006 | 12 | 181 | 0.0 | 3.2 | 0.00 | 0.00 | 0.00 | 58 | 1017.6 |
| 20260502203625 | 12 | 178 | 1.6 | 3.2 | 0.00 | 0.00 | 0.00 | 61 | 1019.4 |
| 20260502203506 | 13 | 181 | 0.0 | 3.2 | 0.00 | 0.00 | 0.00 | 58 | 1017.7 |
| 20260502203125 | 12 | 176 | 0.0 | 1.6 | 0.00 | 0.00 | 0.00 | 59 | 1019.3 |
| 20260502203005 | 13 | 181 | 0.0 | 3.2 | 0.00 | 0.00 | 0.00 | 57 | 1017.7 |
| 20260502202506 | 13 | 181 | 1.6 | 3.2 | 0.00 | 0.00 | 0.00 | 56 | 1017.5 |
| 20260502202125 | 13 | 162 | 1.6 | 3.2 | 0.00 | 0.00 | 0.00 | 57 | 1019.4 |
| 20260502201505 | 14 | 177 | 3.2 | 6.4 | 0.00 | 0.00 | 0.00 | 55 | 1017.7 |
| 20260502201006 | 14 | 181 | 4.8 | 6.4 | 0.00 | 0.00 | 0.00 | 55 | 1017.7 |
| 20260502200130 | 13 | 184 | 3.2 | 4.8 | 0.00 | 0.00 | 0.00 | 55 | 1019.4 |
| 20260502200005 | 14 | 176 | 3.2 | 6.4 | 0.00 | 0.00 | 0.00 | 54 | 1017.7 |
| 20260502195625 | 13 | 158 | 1.6 | 3.2 | 0.00 | 0.00 | 0.00 | 55 | 1019.4 |
| 20260502195506 | 14 | 171 | 3.2 | 3.2 | 0.00 | 0.00 | 0.00 | 54 | 1017.7 |
| 20260502195125 | 14 | 156 | 1.6 | 3.2 | 0.00 | 0.00 | 0.00 | 54 | 1019.3 |
| 20260502195006 | 14 | 188 | 1.6 | 3.2 | 0.00 | 0.00 | 0.00 | 54 | 1017.6 |
| 20260502194625 | 14 | 256 | 1.6 | 4.8 | 0.00 | 0.00 | 0.00 | 53 | 1019.5 |
| 20260502194505 | 15 | 271 | 1.6 | 4.8 | 0.00 | 0.00 | 0.00 | 52 | 1017.7 |
| 20260502194125 | 15 | 238 | 1.6 | 4.8 | 0.00 | 0.00 | 0.00 | 50 | 1019.4 |
| 20260502194006 | 15 | 243 | 3.2 | 4.8 | 0.00 | 0.00 | 0.00 | 51 | 1017.7 |
| 20260502193506 | 16 | 182 | 3.2 | 3.2 | 0.00 | 0.00 | 0.00 | 49 | 1017.8 |
| 20260502193125 | 16 | 162 | 3.2 | 3.2 | 0.00 | 0.00 | 0.00 | 46 | 1019.7 |
| 20260502193006 | 16 | 174 | 3.2 | 3.2 | 0.00 | 0.00 | 0.00 | 48 | 1017.9 |
| 20260502192625 | 16 | 171 | 3.2 | 4.8 | 0.00 | 0.00 | 0.00 | 46 | 1019.4 |
| 20260502192506 | 16 | 184 | 3.2 | 4.8 | 0.00 | 0.00 | 0.00 | 48 | 1017.9 |
| 20260502192006 | 16 | 188 | 3.2 | 4.8 | 0.00 | 0.00 | 0.00 | 46 | 1017.8 |
| 20260502191624 | 16 | 191 | 3.2 | 4.8 | 0.00 | 0.00 | 0.00 | 44 | 1019.5 |
| 20260502191506 | 16 | 181 | 3.2 | 4.8 | 0.00 | 0.00 | 0.00 | 45 | 1017.9 |
| 20260502191125 | 17 | 192 | 3.2 | 4.8 | 0.00 | 0.00 | 0.00 | 42 | 1019.5 |
| 20260502191005 | 17 | 192 | 3.2 | 4.8 | 0.00 | 0.00 | 0.00 | 43 | 1017.9 |
| 20260502190625 | 17 | 187 | 3.2 | 4.8 | 0.00 | 0.00 | 0.00 | 42 | 1019.7 |
| 20260502190506 | 17 | 199 | 4.8 | 4.8 | 0.00 | 0.00 | 0.00 | 43 | 1017.9 |
| 20260502190130 | 17 | 188 | 3.2 | 4.8 | 0.00 | 0.00 | 0.00 | 41 | 1019.7 |
| 20260502185625 | 17 | 185 | 3.2 | 4.8 | 0.00 | 0.00 | 0.00 | 41 | 1019.7 |
| 20260502185505 | 17 | 202 | 4.8 | 6.4 | 0.00 | 0.00 | 0.00 | 42 | 1017.7 |
| 20260502185125 | 17 | 182 | 3.2 | 4.8 | 0.00 | 0.00 | 0.00 | 41 | 1019.7 |
| 20260502184506 | 18 | 192 | 3.2 | 4.8 | 0.00 | 0.00 | 0.00 | 42 | 1017.9 |
| 20260502184006 | 18 | 186 | 4.8 | 6.4 | 0.00 | 0.00 | 0.00 | 42 | 1017.7 |
| 20260502183625 | 18 | 176 | 4.8 | 6.4 | 0.00 | 0.00 | 0.00 | 39 | 1019.4 |
| 20260502183506 | 18 | 189 | 4.8 | 6.4 | 0.00 | 0.00 | 0.00 | 41 | 1017.9 |
| 20260502182625 | 18 | 189 | 3.2 | 4.8 | 0.00 | 0.00 | 0.00 | 38 | 1019.5 |
| 20260502182505 | 19 | 168 | 4.8 | 4.8 | 0.00 | 0.00 | 0.00 | 39 | 1017.9 |
| 20260502182125 | 19 | 189 | 3.2 | 4.8 | 0.00 | 0.00 | 0.00 | 38 | 1019.3 |
| 20260502182006 | 19 | 174 | 3.2 | 4.8 | 0.00 | 0.00 | 0.00 | 38 | 1017.8 |
| 20260502181506 | 20 | 181 | 3.2 | 3.2 | 0.00 | 0.00 | 0.00 | 37 | 1017.8 |
| 20260502181125 | 20 | 186 | 3.2 | 3.2 | 0.00 | 0.00 | 0.00 | 36 | 1019.5 |
| 20260502181005 | 20 | 181 | 3.2 | 3.2 | 0.00 | 0.00 | 0.00 | 36 | 1017.7 |
| 20260502180624 | 20 | 187 | 1.6 | 3.2 | 0.00 | 0.00 | 0.00 | 35 | 1019.5 |
| 20260502180506 | 20 | 184 | 3.2 | 3.2 | 0.00 | 0.00 | 0.00 | 36 | 1017.8 |
| 20260502180131 | 20 | 172 | 3.2 | 6.4 | 0.00 | 0.00 | 0.00 | 35 | 1019.2 |
| 20260502170506 | 22 | 149 | 6.4 | 11.3 | 0.00 | 0.00 | 0.00 | 30 | 1017.8 |
| 20260502170130 | 22 | 155 | 6.4 | 11.3 | 0.00 | 0.00 | 0.00 | 28 | 1019.4 |
| 20260502164125 | 23 | 139 | 8.0 | 14.5 | 0.00 | 0.00 | 0.00 | 26 | 1019.5 |
| 20260502164006 | 23 | 134 | 8.0 | 12.9 | 0.00 | 0.00 | 0.00 | 29 | 1018.1 |
| 20260502163625 | 23 | 137 | 8.0 | 14.5 | 0.00 | 0.00 | 0.00 | 26 | 1019.5 |
| 20260502163125 | 23 | 136 | 8.0 | 11.3 | 0.00 | 0.00 | 0.00 | 26 | 1019.5 |
| 20260502163006 | 23 | 139 | 8.0 | 11.3 | 0.00 | 0.00 | 0.00 | 29 | 1018.2 |
| 20260502162625 | 23 | 162 | 9.7 | 16.1 | 0.00 | 0.00 | 0.00 | 28 | 1019.8 |
| 20260502162506 | 23 | 155 | 9.7 | 14.5 | 0.00 | 0.00 | 0.00 | 29 | 1018.0 |
| 20260502162125 | 23 | 174 | 11.3 | 16.1 | 0.00 | 0.00 | 0.00 | 27 | 1019.7 |
| 20260502162006 | 23 | 175 | 11.3 | 14.5 | 0.00 | 0.00 | 0.00 | 27 | 1018.1 |
| 20260502161505 | 23 | 187 | 9.7 | 12.9 | 0.00 | 0.00 | 0.00 | 29 | 1018.2 |
| 20260502161125 | 23 | 178 | 8.0 | 11.3 | 0.00 | 0.00 | 0.00 | 26 | 1019.7 |
| 20260502161006 | 23 | 192 | 8.0 | 9.7 | 0.00 | 0.00 | 0.00 | 30 | 1018.1 |
| 20260502160625 | 24 | 144 | 8.0 | 11.3 | 0.00 | 0.00 | 0.00 | 26 | 1020.1 |
| 20260502160506 | 23 | 157 | 8.0 | 9.7 | 0.00 | 0.00 | 0.00 | 29 | 1018.2 |
| 20260502160130 | 24 | 131 | 8.0 | 11.3 | 0.00 | 0.00 | 0.00 | 27 | 1020.0 |
| 20260502152125 | 23 | 202 | 6.4 | 11.3 | 0.00 | 0.00 | 0.00 | 26 | 1020.2 |
| 20260502152005 | 23 | 205 | 6.4 | 12.9 | 0.00 | 0.00 | 0.00 | 28 | 1018.7 |
| 20260502151506 | 24 | 232 | 4.8 | 12.9 | 0.00 | 0.00 | 0.00 | 28 | 1018.8 |
| 20260502151125 | 24 | 193 | 1.6 | 6.4 | 0.00 | 0.00 | 0.00 | 26 | 1020.4 |
| 20260502151006 | 23 | 198 | 3.2 | 6.4 | 0.00 | 0.00 | 0.00 | 29 | 1018.8 |
| 20260502150625 | 24 | 214 | 4.8 | 9.7 | 0.00 | 0.00 | 0.00 | 26 | 1020.4 |
| 20260502150506 | 23 | 192 | 6.4 | 9.7 | 0.00 | 0.00 | 0.00 | 29 | 1019.0 |
| 20260502150130 | 23 | 199 | 6.4 | 9.7 | 0.00 | 0.00 | 0.00 | 26 | 1020.2 |
| 20260502130506 | 23 | 199 | 6.4 | 8.0 | 0.00 | 0.00 | 0.00 | 31 | 1020.2 |
| 20260502130133 | 23 | 185 | 4.8 | 8.0 | 0.00 | 0.00 | 0.00 | 27 | 1021.8 |
| 20260502123625 | 23 | 312 | 8.0 | 12.9 | 0.00 | 0.00 | 0.00 | 27 | 1022.1 |
| 20260502123506 | 22 | 319 | 8.0 | 12.9 | 0.00 | 0.00 | 0.00 | 30 | 1020.5 |
| 20260502123006 | 22 | 284 | 6.4 | 9.7 | 0.00 | 0.00 | 0.00 | 31 | 1020.5 |
| 20260502122625 | 23 | 316 | 6.4 | 9.7 | 0.00 | 0.00 | 0.00 | 28 | 1022.2 |
| 20260502122125 | 23 | 36 | 6.4 | 9.7 | 0.00 | 0.00 | 0.00 | 28 | 1022.2 |
| 20260502122006 | 22 | 352 | 4.8 | 8.0 | 0.00 | 0.00 | 0.00 | 31 | 1020.8 |
| 20260502121625 | 22 | 105 | 6.4 | 8.0 | 0.00 | 0.00 | 0.00 | 27 | 1022.0 |
| 20260502121506 | 22 | 186 | 6.4 | 12.9 | 0.00 | 0.00 | 0.00 | 30 | 1020.7 |
| 20260502121125 | 23 | 48 | 8.0 | 11.3 | 0.00 | 0.00 | 0.00 | 28 | 1022.2 |
| 20260502120625 | 23 | 353 | 9.7 | 11.3 | 0.00 | 0.00 | 0.00 | 27 | 1022.5 |
| 20260502120506 | 22 | 277 | 9.7 | 12.9 | 0.00 | 0.00 | 0.00 | 31 | 1020.9 |
| 20260502120130 | 23 | 325 | 6.4 | 11.3 | 0.00 | 0.00 | 0.00 | 28 | 1022.4 |
| 20260502115625 | 23 | 283 | 4.8 | 8.0 | 0.00 | 0.00 | 0.00 | 29 | 1022.5 |
| 20260502115505 | 22 | 244 | 6.4 | 11.3 | 0.00 | 0.00 | 0.00 | 31 | 1020.9 |
| 20260502115125 | 23 | 269 | 6.4 | 11.3 | 0.00 | 0.00 | 0.00 | 29 | 1022.5 |
| 20260502115006 | 22 | 272 | 6.4 | 11.3 | 0.00 | 0.00 | 0.00 | 32 | 1021.0 |
| 20260502114506 | 22 | 309 | 6.4 | 12.9 | 0.00 | 0.00 | 0.00 | 31 | 1021.1 |
| 20260502114125 | 23 | 302 | 6.4 | 12.9 | 0.00 | 0.00 | 0.00 | 27 | 1022.8 |
| 20260502114006 | 22 | 287 | 8.0 | 14.5 | 0.00 | 0.00 | 0.00 | 31 | 1021.2 |
| 20260502113625 | 23 | 272 | 6.4 | 12.9 | 0.00 | 0.00 | 0.00 | 30 | 1022.9 |
| 20260502113506 | 22 | 263 | 6.4 | 14.5 | 0.00 | 0.00 | 0.00 | 32 | 1021.3 |
| 20260502113125 | 22 | 95 | 4.8 | 8.0 | 0.00 | 0.00 | 0.00 | 31 | 1022.7 |
| 20260502113006 | 22 | 93 | 6.4 | 8.0 | 0.00 | 0.00 | 0.00 | 32 | 1021.2 |
| 20260502112625 | 22 | 95 | 6.4 | 12.9 | 0.00 | 0.00 | 0.00 | 29 | 1022.9 |
| 20260502112125 | 22 | 97 | 8.0 | 12.9 | 0.00 | 0.00 | 0.00 | 30 | 1023.0 |
| 20260502112005 | 22 | 65 | 8.0 | 12.9 | 0.00 | 0.00 | 0.00 | 32 | 1021.3 |
| 20260502111625 | 22 | 55 | 6.4 | 11.3 | 0.00 | 0.00 | 0.00 | 28 | 1022.9 |
| 20260502111505 | 22 | 8 | 6.4 | 12.9 | 0.00 | 0.00 | 0.00 | 32 | 1021.4 |
| 20260502111125 | 22 | 347 | 6.4 | 12.9 | 0.00 | 0.00 | 0.00 | 28 | 1023.1 |
| 20260502111006 | 22 | 318 | 8.0 | 11.3 | 0.00 | 0.00 | 0.00 | 31 | 1021.5 |
| 20260502110625 | 22 | 309 | 9.7 | 12.9 | 0.00 | 0.00 | 0.00 | 29 | 1023.1 |
| 20260502110505 | 22 | 312 | 8.0 | 11.3 | 0.00 | 0.00 | 0.00 | 32 | 1021.6 |
| 20260502110131 | 22 | 302 | 6.4 | 12.9 | 0.00 | 0.00 | 0.00 | 31 | 1023.2 |
| 20260502110006 | 22 | 350 | 6.4 | 11.3 | 0.00 | 0.00 | 0.00 | 32 | 1021.7 |
| 20260502105625 | 22 | 78 | 6.4 | 9.7 | 0.00 | 0.00 | 0.00 | 31 | 1023.2 |
| 20260502105505 | 21 | 91 | 6.4 | 11.3 | 0.00 | 0.00 | 0.00 | 34 | 1021.7 |
| 20260502105125 | 22 | 51 | 6.4 | 9.7 | 0.00 | 0.00 | 0.00 | 31 | 1023.1 |
| 20260502105006 | 21 | 358 | 6.4 | 9.7 | 0.00 | 0.00 | 0.00 | 33 | 1021.6 |
| 20260502104625 | 22 | 14 | 8.0 | 12.9 | 0.00 | 0.00 | 0.00 | 31 | 1023.5 |
| 20260502104506 | 22 | 327 | 8.0 | 12.9 | 0.00 | 0.00 | 0.00 | 32 | 1021.8 |
| 20260502104125 | 22 | 15 | 8.0 | 12.9 | 0.00 | 0.00 | 0.00 | 29 | 1023.5 |
| 20260502104005 | 22 | 339 | 9.7 | 12.9 | 0.00 | 0.00 | 0.00 | 32 | 1021.9 |
| 20260502103625 | 22 | 15 | 8.0 | 12.9 | 0.00 | 0.00 | 0.00 | 30 | 1023.6 |
| 20260502103506 | 21 | 357 | 6.4 | 12.9 | 0.00 | 0.00 | 0.00 | 33 | 1021.8 |
| 20260502103125 | 22 | 72 | 4.8 | 9.7 | 0.00 | 0.00 | 0.00 | 31 | 1023.6 |
| 20260502102625 | 22 | 44 | 4.8 | 11.3 | 0.00 | 0.00 | 0.00 | 31 | 1023.6 |
| 20260502102505 | 21 | 36 | 6.4 | 12.9 | 0.00 | 0.00 | 0.00 | 34 | 1022.1 |
| 20260502102125 | 22 | 14 | 8.0 | 12.9 | 0.00 | 0.00 | 0.00 | 30 | 1023.7 |
| 20260502102006 | 21 | 341 | 8.0 | 12.9 | 0.00 | 0.00 | 0.00 | 33 | 1022.3 |
| 20260502101506 | 21 | 328 | 8.0 | 12.9 | 0.00 | 0.00 | 0.00 | 34 | 1022.1 |
| 20260502101125 | 22 | 341 | 8.0 | 11.3 | 0.00 | 0.00 | 0.00 | 32 | 1023.6 |
| 20260502101005 | 21 | 321 | 8.0 | 9.7 | 0.00 | 0.00 | 0.00 | 35 | 1022.3 |
| 20260502100625 | 21 | 330 | 9.7 | 12.9 | 0.00 | 0.00 | 0.00 | 32 | 1024.0 |
| 20260502100506 | 21 | 307 | 9.7 | 12.9 | 0.00 | 0.00 | 0.00 | 35 | 1022.3 |
| 20260502100131 | 21 | 324 | 6.4 | 12.9 | 0.00 | 0.00 | 0.00 | 33 | 1024.1 |
| 20260502091506 | 20 | 191 | 6.4 | 8.0 | 0.00 | 0.00 | 0.00 | 37 | 1022.9 |
| 20260502091125 | 21 | 159 | 8.0 | 12.9 | 0.00 | 0.00 | 0.00 | 34 | 1024.4 |
| 20260502091006 | 20 | 168 | 8.0 | 12.9 | 0.00 | 0.00 | 0.00 | 38 | 1022.9 |
| 20260502090625 | 20 | 181 | 8.0 | 14.5 | 0.00 | 0.00 | 0.00 | 34 | 1024.3 |
| 20260502090505 | 20 | 178 | 9.7 | 16.1 | 0.00 | 0.00 | 0.00 | 37 | 1022.8 |
| 20260502090131 | 21 | 184 | 8.0 | 14.5 | 0.00 | 0.00 | 0.00 | 35 | 1024.5 |
| 20260502071505 | 17 | 221 | 8.0 | 11.3 | 0.00 | 0.00 | 0.00 | 49 | 1023.1 |
| 20260502071125 | 17 | 218 | 6.4 | 11.3 | 0.00 | 0.00 | 0.00 | 45 | 1024.8 |
| 20260502071006 | 17 | 205 | 6.4 | 11.3 | 0.00 | 0.00 | 0.00 | 50 | 1023.1 |
| 20260502070625 | 16 | 237 | 6.4 | 8.0 | 0.00 | 0.00 | 0.00 | 48 | 1024.8 |
| 20260502070505 | 17 | 210 | 6.4 | 9.7 | 0.00 | 0.00 | 0.00 | 50 | 1023.1 |
| 20260502070132 | 16 | 226 | 6.4 | 6.4 | 0.00 | 0.00 | 0.00 | 48 | 1024.9 |
| 20260502065625 | 16 | 206 | 4.8 | 8.0 | 0.00 | 0.00 | 0.00 | 52 | 1024.6 |
| 20260502065506 | 16 | 241 | 6.4 | 8.0 | 0.00 | 0.00 | 0.00 | 54 | 1023.1 |
| 20260502065125 | 16 | 195 | 6.4 | 8.0 | 0.00 | 0.00 | 0.00 | 53 | 1024.7 |
| 20260502065005 | 16 | 196 | 6.4 | 8.0 | 0.00 | 0.00 | 0.00 | 54 | 1023.1 |
| 20260502064625 | 15 | 176 | 6.4 | 8.0 | 0.00 | 0.00 | 0.00 | 53 | 1024.7 |
| 20260502064505 | 16 | 172 | 6.4 | 8.0 | 0.00 | 0.00 | 0.00 | 54 | 1023.0 |
| 20260502064125 | 15 | 174 | 6.4 | 8.0 | 0.00 | 0.00 | 0.00 | 54 | 1025.0 |
| 20260502064006 | 16 | 173 | 4.8 | 8.0 | 0.00 | 0.00 | 0.00 | 55 | 1023.2 |
| 20260502063625 | 15 | 181 | 4.8 | 8.0 | 0.00 | 0.00 | 0.00 | 55 | 1025.0 |
| 20260502063505 | 15 | 175 | 4.8 | 8.0 | 0.00 | 0.00 | 0.00 | 57 | 1023.2 |
| 20260502063125 | 15 | 188 | 4.8 | 6.4 | 0.00 | 0.00 | 0.00 | 56 | 1024.9 |
| 20260502062625 | 15 | 222 | 4.8 | 8.0 | 0.00 | 0.00 | 0.00 | 59 | 1024.7 |
| 20260502062506 | 15 | 221 | 6.4 | 6.4 | 0.00 | 0.00 | 0.00 | 59 | 1023.2 |
| 20260502062125 | 14 | 228 | 4.8 | 8.0 | 0.00 | 0.00 | 0.00 | 63 | 1024.7 |
| 20260502062005 | 15 | 227 | 4.8 | 6.4 | 0.00 | 0.00 | 0.00 | 63 | 1023.1 |
| 20260502061125 | 13 | 189 | 3.2 | 4.8 | 0.00 | 0.00 | 0.00 | 73 | 1024.8 |
| 20260502061006 | 15 | 190 | 1.6 | 4.8 | 0.00 | 0.00 | 0.00 | 68 | 1023.2 |
| 20260502060006 | 13 | 224 | 3.2 | 4.8 | 0.00 | 0.00 | 0.00 | 74 | 1023.1 |
| 20260502055625 | 12 | 233 | 3.2 | 3.2 | 0.00 | 0.00 | 0.00 | 81 | 1024.7 |
| 20260502055506 | 13 | 233 | 3.2 | 4.8 | 0.00 | 0.00 | 0.00 | 76 | 1022.9 |
| 20260502055125 | 11 | 235 | 3.2 | 3.2 | 0.00 | 0.00 | 0.00 | 84 | 1024.8 |
| 20260502055005 | 12 | 250 | 1.6 | 4.8 | 0.00 | 0.00 | 0.00 | 79 | 1022.9 |
| 20260502054505 | 11 | 270 | 0.0 | 3.2 | 0.00 | 0.00 | 0.00 | 81 | 1023.1 |
| 20260502054125 | 10 | 205 | 1.6 | 3.2 | 0.00 | 0.00 | 0.00 | 88 | 1025.0 |
| 20260502054006 | 11 | 0 | 0.0 | 0.0 | 0.00 | 0.00 | 0.00 | 82 | 1023.1 |
| 20260502053625 | 10 | 193 | 1.6 | 3.2 | 0.00 | 0.00 | 0.00 | 89 | 1024.8 |
| 20260502053506 | 10 | 0 | 0.0 | 0.0 | 0.00 | 0.00 | 0.00 | 84 | 1023.1 |
| 20260502053005 | 10 | 0 | 0.0 | 0.0 | 0.00 | 0.00 | 0.00 | 85 | 1023.0 |
| 20260502052506 | 9 | 0 | 0.0 | 0.0 | 0.00 | 0.00 | 0.00 | 87 | 1023.0 |
| 20260502052125 | 8 | 270 | 1.6 | 3.2 | 0.00 | 0.00 | 0.00 | 95 | 1025.0 |
| 20260502051625 | 8 | 242 | 1.6 | 3.2 | 0.00 | 0.00 | 0.00 | 96 | 1024.7 |
| 20260502051506 | 8 | 0 | 0.0 | 0.0 | 0.00 | 0.00 | 0.00 | 90 | 1023.0 |
| 20260502051125 | 8 | 168 | 1.6 | 3.2 | 0.00 | 0.00 | 0.00 | 97 | 1024.9 |
| 20260502051006 | 8 | 0 | 0.0 | 0.0 | 0.00 | 0.00 | 0.00 | 91 | 1022.9 |
| 20260502050625 | 7 | 139 | 0.0 | 3.2 | 0.00 | 0.00 | 0.00 | 97 | 1024.9 |
| 20260502050505 | 7 | 0 | 0.0 | 0.0 | 0.00 | 0.00 | 0.00 | 92 | 1022.8 |
| 20260502050131 | 7 | 143 | 0.0 | 3.2 | 0.00 | 0.00 | 0.00 | 97 | 1024.8 |
| 20260502050006 | 6 | 0 | 0.0 | 0.0 | 0.00 | 0.00 | 0.00 | 93 | 1023.0 |
| 20260502045626 | 6 | 163 | 0.0 | 1.6 | 0.00 | 0.00 | 0.00 | 98 | 1024.8 |
| 20260502045505 | 5 | 0 | 0.0 | 0.0 | 0.00 | 0.00 | 0.00 | 93 | 1022.9 |
| 20260502045124 | 6 | 0 | 0.0 | 0.0 | 0.00 | 0.00 | 0.00 | 99 | 1024.8 |
| 20260502045006 | 5 | 0 | 0.0 | 0.0 | 0.00 | 0.00 | 0.00 | 93 | 1022.8 |
| 20260502044125 | 4 | 0 | 0.0 | 0.0 | 0.00 | 0.00 | 0.00 | 99 | 1024.8 |
| 20260502044005 | 4 | 0 | 0.0 | 0.0 | 0.00 | 0.00 | 0.00 | 94 | 1022.7 |
| 20260502043625 | 3 | 0 | 0.0 | 0.0 | 0.00 | 0.00 | 0.00 | 99 | 1024.7 |
| 20260502043506 | 4 | 0 | 0.0 | 0.0 | 0.00 | 0.00 | 0.00 | 94 | 1022.8 |
| 20260502043125 | 3 | 0 | 0.0 | 0.0 | 0.00 | 0.00 | 0.00 | 99 | 1024.6 |
| 20260502043006 | 3 | 0 | 0.0 | 0.0 | 0.00 | 0.00 | 0.00 | 94 | 1022.8 |
| 20260502042625 | 3 | 0 | 0.0 | 0.0 | 0.00 | 0.00 | 0.00 | 99 | 1025.0 |
| 20260502042505 | 3 | 0 | 0.0 | 0.0 | 0.00 | 0.00 | 0.00 | 94 | 1022.6 |
| 20260502042125 | 2 | 0 | 0.0 | 0.0 | 0.00 | 0.00 | 0.00 | 98 | 1024.7 |
| 20260502042006 | 3 | 0 | 0.0 | 0.0 | 0.00 | 0.00 | 0.00 | 94 | 1022.5 |
| 20260502041505 | 3 | 0 | 0.0 | 0.0 | 0.00 | 0.00 | 0.00 | 93 | 1022.5 |
| 20260502041125 | 2 | 135 | 0.0 | 1.6 | 0.00 | 0.00 | 0.00 | 94 | 1024.7 |
| 20260502040625 | 2 | 135 | 0.0 | 1.6 | 0.00 | 0.00 | 0.00 | 93 | 1024.7 |
| 20260502040506 | 3 | 0 | 0.0 | 0.0 | 0.00 | 0.00 | 0.00 | 92 | 1022.3 |
| 20260502040130 | 2 | 0 | 0.0 | 0.0 | 0.00 | 0.00 | 0.00 | 93 | 1024.7 |
| 20260502040006 | 3 | 0 | 0.0 | 0.0 | 0.00 | 0.00 | 0.00 | 92 | 1022.3 |
| 20260502035505 | 2 | 0 | 0.0 | 0.0 | 0.00 | 0.00 | 0.00 | 92 | 1022.4 |
| 20260502035125 | 2 | 0 | 0.0 | 0.0 | 0.00 | 0.00 | 0.00 | 93 | 1024.5 |
| 20260502035006 | 2 | 0 | 0.0 | 0.0 | 0.00 | 0.00 | 0.00 | 88 | 1022.3 |
| 20260502034625 | 2 | 0 | 0.0 | 0.0 | 0.00 | 0.00 | 0.00 | 92 | 1024.7 |
| 20260502034506 | 2 | 0 | 0.0 | 0.0 | 0.00 | 0.00 | 0.00 | 88 | 1022.4 |
| 20260502034125 | 2 | 0 | 0.0 | 0.0 | 0.00 | 0.00 | 0.00 | 92 | 1024.7 |
| 20260502034005 | 2 | 0 | 0.0 | 0.0 | 0.00 | 0.00 | 0.00 | 87 | 1022.5 |
| 20260502033506 | 2 | 0 | 0.0 | 0.0 | 0.00 | 0.00 | 0.00 | 87 | 1022.4 |
| 20260502033125 | 2 | 0 | 0.0 | 0.0 | 0.00 | 0.00 | 0.00 | 92 | 1024.9 |
| 20260502033005 | 2 | 0 | 0.0 | 0.0 | 0.00 | 0.00 | 0.00 | 87 | 1022.5 |
| 20260502032625 | 2 | 0 | 0.0 | 0.0 | 0.00 | 0.00 | 0.00 | 92 | 1024.6 |
| 20260502032125 | 2 | 0 | 0.0 | 0.0 | 0.00 | 0.00 | 0.00 | 92 | 1024.6 |
| 20260502032006 | 2 | 0 | 0.0 | 0.0 | 0.00 | 0.00 | 0.00 | 91 | 1022.4 |
| 20260502031625 | 2 | 0 | 0.0 | 0.0 | 0.00 | 0.00 | 0.00 | 92 | 1024.6 |
| 20260502031125 | 2 | 0 | 0.0 | 0.0 | 0.00 | 0.00 | 0.00 | 91 | 1024.7 |
| 20260502030625 | 2 | 0 | 0.0 | 0.0 | 0.00 | 0.00 | 0.00 | 91 | 1024.7 |
| 20260502030506 | 3 | 0 | 0.0 | 0.0 | 0.00 | 0.00 | 0.00 | 90 | 1022.4 |
| 20260502030131 | 2 | 0 | 0.0 | 0.0 | 0.00 | 0.00 | 0.00 | 91 | 1024.7 |
| 20260502030005 | 3 | 0 | 0.0 | 0.0 | 0.00 | 0.00 | 0.00 | 90 | 1022.5 |
| 20260502025625 | 2 | 0 | 0.0 | 0.0 | 0.00 | 0.00 | 0.00 | 91 | 1024.7 |
| 20260502025506 | 3 | 0 | 0.0 | 0.0 | 0.00 | 0.00 | 0.00 | 90 | 1022.5 |
| 20260502025125 | 2 | 0 | 0.0 | 0.0 | 0.00 | 0.00 | 0.00 | 91 | 1024.8 |
| 20260502025005 | 3 | 0 | 0.0 | 0.0 | 0.00 | 0.00 | 0.00 | 90 | 1022.5 |
| 20260502024625 | 2 | 0 | 0.0 | 0.0 | 0.00 | 0.00 | 0.00 | 91 | 1024.6 |
| 20260502024505 | 3 | 0 | 0.0 | 0.0 | 0.00 | 0.00 | 0.00 | 90 | 1022.6 |
| 20260502024125 | 2 | 0 | 0.0 | 0.0 | 0.00 | 0.00 | 0.00 | 91 | 1024.8 |
| 20260502023625 | 2 | 0 | 0.0 | 0.0 | 0.00 | 0.00 | 0.00 | 91 | 1024.6 |
| 20260502023506 | 3 | 0 | 0.0 | 0.0 | 0.00 | 0.00 | 0.00 | 89 | 1022.6 |
| 20260502023005 | 3 | 0 | 0.0 | 0.0 | 0.00 | 0.00 | 0.00 | 89 | 1022.4 |
| 20260502022625 | 2 | 0 | 0.0 | 0.0 | 0.00 | 0.00 | 0.00 | 91 | 1024.8 |
| 20260502022506 | 3 | 0 | 0.0 | 0.0 | 0.00 | 0.00 | 0.00 | 89 | 1022.5 |
| 20260502022126 | 2 | 0 | 0.0 | 0.0 | 0.00 | 0.00 | 0.00 | 91 | 1024.9 |
| 20260502021625 | 2 | 0 | 0.0 | 0.0 | 0.00 | 0.00 | 0.00 | 94 | 1024.8 |
| 20260502021505 | 3 | 0 | 0.0 | 0.0 | 0.00 | 0.00 | 0.00 | 89 | 1022.6 |
| 20260502021125 | 3 | 0 | 0.0 | 0.0 | 0.00 | 0.00 | 0.00 | 94 | 1024.9 |
| 20260502021006 | 3 | 0 | 0.0 | 0.0 | 0.00 | 0.00 | 0.00 | 88 | 1022.7 |
| 20260502020625 | 3 | 0 | 0.0 | 0.0 | 0.00 | 0.00 | 0.00 | 94 | 1025.0 |
| 20260502020505 | 4 | 0 | 0.0 | 0.0 | 0.00 | 0.00 | 0.00 | 88 | 1022.6 |
| 20260502020131 | 3 | 0 | 0.0 | 0.0 | 0.00 | 0.00 | 0.00 | 94 | 1024.7 |
| 20260502020006 | 4 | 0 | 0.0 | 0.0 | 0.00 | 0.00 | 0.00 | 88 | 1022.6 |
| 20260502015625 | 3 | 0 | 0.0 | 0.0 | 0.00 | 0.00 | 0.00 | 94 | 1024.9 |
| 20260502015506 | 4 | 0 | 0.0 | 0.0 | 0.00 | 0.00 | 0.00 | 88 | 1022.6 |
| 20260502015005 | 4 | 0 | 0.0 | 0.0 | 0.00 | 0.00 | 0.00 | 88 | 1022.5 |
| 20260502014625 | 3 | 0 | 0.0 | 0.0 | 0.00 | 0.00 | 0.00 | 94 | 1024.7 |
| 20260502013625 | 3 | 0 | 0.0 | 0.0 | 0.00 | 0.00 | 0.00 | 94 | 1024.8 |
| 20260502013505 | 4 | 0 | 0.0 | 0.0 | 0.00 | 0.00 | 0.00 | 87 | 1022.8 |
| 20260502013125 | 3 | 0 | 0.0 | 0.0 | 0.00 | 0.00 | 0.00 | 94 | 1024.8 |
| 20260502012625 | 3 | 0 | 0.0 | 0.0 | 0.00 | 0.00 | 0.00 | 94 | 1024.8 |
| 20260502012126 | 3 | 0 | 0.0 | 0.0 | 0.00 | 0.00 | 0.00 | 94 | 1024.7 |
| 20260502011625 | 3 | 0 | 0.0 | 0.0 | 0.00 | 0.00 | 0.00 | 93 | 1024.9 |
| 20260502011505 | 5 | 0 | 0.0 | 0.0 | 0.00 | 0.00 | 0.00 | 87 | 1022.7 |
| 20260502011125 | 3 | 0 | 0.0 | 0.0 | 0.00 | 0.00 | 0.00 | 93 | 1024.9 |
| 20260502011006 | 5 | 0 | 0.0 | 0.0 | 0.00 | 0.00 | 0.00 | 87 | 1022.6 |
| 20260502010505 | 5 | 0 | 0.0 | 0.0 | 0.00 | 0.00 | 0.00 | 88 | 1022.5 |
| 20260502010131 | 3 | 131 | 1.6 | 3.2 | 0.00 | 0.00 | 0.00 | 93 | 1024.6 |
| 20260502010005 | 4 | 0 | 0.0 | 0.0 | 0.00 | 0.00 | 0.00 | 87 | 1022.7 |
| 20260502005625 | 3 | 130 | 0.0 | 3.2 | 0.00 | 0.00 | 0.00 | 92 | 1024.9 |
| 20260502005506 | 4 | 0 | 0.0 | 0.0 | 0.00 | 0.00 | 0.00 | 87 | 1022.7 |
| 20260502005005 | 4 | 0 | 0.0 | 0.0 | 0.00 | 0.00 | 0.00 | 87 | 1022.6 |
| 20260502004625 | 3 | 0 | 0.0 | 0.0 | 0.00 | 0.00 | 0.00 | 92 | 1024.7 |
| 20260502004505 | 4 | 0 | 0.0 | 0.0 | 0.00 | 0.00 | 0.00 | 87 | 1022.6 |
| 20260502004006 | 4 | 0 | 0.0 | 0.0 | 0.00 | 0.00 | 0.00 | 87 | 1022.6 |
| 20260502003626 | 3 | 270 | 0.0 | 1.6 | 0.00 | 0.00 | 0.00 | 91 | 1024.8 |
| 20260502003505 | 4 | 0 | 0.0 | 0.0 | 0.00 | 0.00 | 0.00 | 86 | 1022.6 |
| 20260502003125 | 3 | 270 | 0.0 | 1.6 | 0.00 | 0.00 | 0.00 | 91 | 1024.8 |
| 20260502003005 | 4 | 0 | 0.0 | 0.0 | 0.00 | 0.00 | 0.00 | 86 | 1022.6 |
| 20260502002625 | 3 | 0 | 0.0 | 0.0 | 0.00 | 0.00 | 0.00 | 90 | 1024.8 |
| 20260502002126 | 3 | 270 | 0.0 | 1.6 | 0.00 | 0.00 | 0.00 | 89 | 1024.7 |
| 20260502002006 | 5 | 0 | 0.0 | 0.0 | 0.00 | 0.00 | 0.00 | 86 | 1022.6 |
| 20260502001625 | 3 | 270 | 0.0 | 1.6 | 0.00 | 0.00 | 0.00 | 89 | 1024.7 |
| 20260502001506 | 5 | 0 | 0.0 | 0.0 | 0.00 | 0.00 | 0.00 | 85 | 1022.6 |
| 20260502001005 | 5 | 0 | 0.0 | 0.0 | 0.00 | 0.00 | 0.00 | 84 | 1022.7 |
| 20260502000625 | 4 | 270 | 0.0 | 1.6 | 0.00 | 0.00 | 0.00 | 89 | 1024.8 |
| 20260502000505 | 5 | 0 | 0.0 | 0.0 | 0.00 | 0.00 | 0.00 | 84 | 1022.7 |
| 20260502000131 | 4 | 270 | 0.0 | 1.6 | 0.00 | 0.00 | 0.00 | 88 | 1024.8 |
| 20260502000006 | 5 | 0 | 0.0 | 0.0 | 0.00 | 0.00 | 0.00 | 84 | 1022.6 |
| 20260501235625 | 5 | 0 | 0.0 | 0.0 | 0.00 | 0.00 | 0.00 | 88 | 1024.7 |
| 20260501235505 | 5 | 0 | 0.0 | 0.0 | 0.00 | 0.00 | 0.00 | 84 | 1022.6 |
| 20260501235006 | 5 | 0 | 0.0 | 0.0 | 0.00 | 0.00 | 0.00 | 84 | 1022.6 |
| 20260501234625 | 5 | 135 | 0.0 | 1.6 | 0.00 | 0.00 | 0.00 | 87 | 1024.8 |
| 20260501234505 | 6 | 0 | 0.0 | 0.0 | 0.00 | 0.00 | 0.00 | 84 | 1022.6 |
| 20260501234125 | 5 | 135 | 0.0 | 1.6 | 0.00 | 0.00 | 0.00 | 87 | 1024.9 |
| 20260501234005 | 6 | 0 | 0.0 | 0.0 | 0.00 | 0.00 | 0.00 | 84 | 1022.6 |
| 20260501233625 | 5 | 135 | 0.0 | 1.6 | 0.00 | 0.00 | 0.00 | 87 | 1024.5 |
| 20260501233506 | 6 | 0 | 0.0 | 0.0 | 0.00 | 0.00 | 0.00 | 84 | 1022.6 |
| 20260501232505 | 5 | 0 | 0.0 | 0.0 | 0.00 | 0.00 | 0.00 | 84 | 1022.7 |
| 20260501232126 | 5 | 0 | 0.0 | 0.0 | 0.00 | 0.00 | 0.00 | 86 | 1024.8 |
| 20260501232006 | 5 | 0 | 0.0 | 0.0 | 0.00 | 0.00 | 0.00 | 83 | 1022.7 |
| 20260501231625 | 5 | 0 | 0.0 | 0.0 | 0.00 | 0.00 | 0.00 | 86 | 1024.7 |
| 20260501231505 | 5 | 0 | 0.0 | 0.0 | 0.00 | 0.00 | 0.00 | 83 | 1022.9 |
| 20260501231005 | 6 | 0 | 0.0 | 0.0 | 0.00 | 0.00 | 0.00 | 83 | 1022.9 |
| 20260501230131 | 5 | 0 | 0.0 | 0.0 | 0.00 | 0.00 | 0.00 | 85 | 1024.8 |
| 20260501230006 | 6 | 0 | 0.0 | 0.0 | 0.00 | 0.00 | 0.00 | 82 | 1022.9 |
| 20260501225625 | 5 | 0 | 0.0 | 0.0 | 0.00 | 0.00 | 0.00 | 84 | 1024.7 |
| 20260501225125 | 5 | 0 | 0.0 | 0.0 | 0.00 | 0.00 | 0.00 | 84 | 1025.0 |
| 20260501225006 | 6 | 0 | 0.0 | 0.0 | 0.00 | 0.00 | 0.00 | 81 | 1022.9 |
| 20260501224625 | 5 | 0 | 0.0 | 0.0 | 0.00 | 0.00 | 0.00 | 84 | 1024.8 |
| 20260501224505 | 6 | 0 | 0.0 | 0.0 | 0.00 | 0.00 | 0.00 | 81 | 1023.0 |
| 20260501224126 | 5 | 0 | 0.0 | 0.0 | 0.00 | 0.00 | 0.00 | 84 | 1024.8 |
| 20260501224006 | 6 | 0 | 0.0 | 0.0 | 0.00 | 0.00 | 0.00 | 80 | 1022.9 |
| 20260501223626 | 6 | 0 | 0.0 | 0.0 | 0.00 | 0.00 | 0.00 | 84 | 1024.6 |
| 20260501223506 | 6 | 0 | 0.0 | 0.0 | 0.00 | 0.00 | 0.00 | 80 | 1023.0 |
| 20260501223005 | 7 | 0 | 0.0 | 0.0 | 0.00 | 0.00 | 0.00 | 79 | 1022.8 |
| 20260501222625 | 6 | 0 | 0.0 | 0.0 | 0.00 | 0.00 | 0.00 | 83 | 1024.8 |
| 20260501222505 | 7 | 0 | 0.0 | 0.0 | 0.00 | 0.00 | 0.00 | 80 | 1023.0 |
| 20260501222125 | 6 | 135 | 0.0 | 1.6 | 0.00 | 0.00 | 0.00 | 83 | 1024.7 |
| 20260501222006 | 7 | 0 | 0.0 | 0.0 | 0.00 | 0.00 | 0.00 | 80 | 1022.9 |